Regional Weather Roundup
Issued by NWS

Home | Current Version | Previous Version | Text Only | Print | Product List | Glossary On
Versions: 1 2 3 4 5 6 7 8 9 10 11 12 13 14 15 16 17 18 19 20 21 22 23 24 25 26 27 28 29 30 31 32 33 34 35 36 37 38 39 40 41 42 43 44 45 46 47 48 49 50
000
ASUS43 KLSX 211407
RWRMO

WEATHER SUMMARY FOR MISSOURI
NATIONAL WEATHER SERVICE SPRINGFIELD MO
900 AM CDT TUE OCT 21 2014

NOTE: "FAIR" INDICATES FEW OR NO CLOUDS BELOW 12,000 FEET WITH NO
       SIGNIFICANT WEATHER AND/OR OBSTRUCTIONS TO VISIBILITY.
       CURRENT SKY AND/OR WEATHER CONDITIONS ARE NOT AVAILABLE FOR
       CHILLICOTHE AND FARMINGTON.

MOZ001>031-035>038-043-044-053-054-211500-
...NORTHERN AND WESTERN MISSOURI...

CITY           SKY/WX    TMP DP  RH WIND       PRES   REMARKS
KANSAS CTY INT SUNNY     54  46  74 CALM      30.13R
KANSAS C DTWN  SUNNY     50  47  89 CALM      30.14R
LEE`S SUMMIT   SUNNY     51  46  83 CALM      30.14R
ST JOSEPH      FAIR      43  42  97 CALM      30.14R FOG
CHILLICOTHE      N/A     47  45  93 CALM      30.15R
KIRKSVILLE     SUNNY     50  45  83 NE6       30.15R

$$
MOZ066>068-077>081-088>096-101>105-211500-
...SOUTHWEST MISSOURI...

CITY           SKY/WX    TMP DP  RH WIND       PRES   REMARKS
SPRINGFIELD    SUNNY     55  51  86 CALM      30.13R
JOPLIN         FOG       53  53 100 CALM      30.14R VSB 1/4

$$
MOZ032>034-039>042-045>050-055>058-069>072-211500-
...CENTRAL MISSOURI...

CITY           SKY/WX    TMP DP  RH WIND       PRES   REMARKS
COLUMBIA       SUNNY     54  47  77 N5        30.13R
JEFFERSON CITY SUNNY     48  44  86 CALM      30.14R
ROLLA          SUNNY     53  46  77 NW5       30.12R
SEDALIA        SUNNY     53  45  74 NE3       30.15R
WHITEMAN AFB   SUNNY     51  46  83 N2        30.13R
OSAGE BEACH    SUNNY     46  43  87 CALM      30.14R

$$
MOZ051-052-059>065-211500-
...EAST CENTRAL MISSOURI...

CITY           SKY/WX    TMP DP  RH WIND       PRES   REMARKS
ST LOUIS INTL  SUNNY     55  46  71 N3        30.12R
SPIRIT OF STL  SUNNY     51  47  86 SW3       30.12R
ST CHARLES     SUNNY     52  47  83 CALM      30.12R

$$
MOZ072>076-082>087-097>100-106>115-211500-
...SOUTH CENTRAL AND SOUTHEAST MISSOURI...

CITY           SKY/WX    TMP DP  RH WIND       PRES   REMARKS
CAPE GIRARDEAU SUNNY     51  49  92 CALM      30.10R
FARMINGTON     SUNNY     48  45  87 CALM      30.13R
WEST PLAINS    SUNNY     55  49  80 CALM      30.13R

$$


USA.gov is the U.S. government's official web portal to all federal, state and local government web resources and services.